{"data":{"norad_id":68017,"epoch":"2026-09-20T02:34:13.039104Z","epoch_age_seconds":93504,"freshness":"FRESH","line1":"1 68017U 26040C   26263.10709536  .00015409  00000+0  47858-3 0  9997","line2":"2 68017  97.2865 210.3921 0001850  96.3494 263.7959 15.33448992 31258","mean_motion":15.33448992,"eccentricity":0.000185,"inclination_deg":97.2865,"raan_deg":210.3921,"arg_perigee_deg":96.3494,"mean_anomaly_deg":263.7959,"bstar":0.00047858,"rev_number":3125,"period_min":93.905960192512,"perigee_km":464.26521848554,"apogee_km":466.79737575548,"semimajor_km":6843.6682971205,"source":"CELESTRAK","updated_at":"2026-09-20T09:00:43.741545Z"}}